Regional Weather Roundup
Issued by NWS

Home | Current Version | Previous Version | Graphics & Text | Print | Product List | Glossary On
Versions: 1 2 3 4 5 6 7 8 9 10 11 12 13 14 15 16 17 18 19 20 21 22 23 24 25 26 27 28 29 30 31 32 33 34 35 36 37 38 39 40 41 42 43 44 45 46 47 48 49 50
000
ASUS43 KMKX 251159
RWRWI

WISCONSIN REGIONAL WEATHER ROUNDUP
NATIONAL WEATHER SERVICE MILWAUKEE/SULLIVAN WI
600 AM CST SUN JAN 25 2015

NOTE: "FAIR" INDICATES FEW OR NO CLOUDS BELOW 12,000 FEET WITH NO
SIGNIFICANT WEATHER AND/OR OBSTRUCTIONS TO VISIBILITY.

WIZ001-002-006>008-014>016-023>028-251300-
NORTHWEST WISCONSIN

CITY           SKY/WX    TMP DP  RH WIND       PRES   REMARKS
SUPERIOR ARPT  CLOUDY    21  17  83 NE15      29.99R WCI   8
ASHLAND        CLOUDY    19  12  74 E3        29.97R
6HR MIN TEMP:  18; 6HR MAX TEMP:  20; 6HR PCP: TRACE;

HAYWARD        CLOUDY    15   7  70 NE6       29.92R WCI   6
6HR MIN TEMP:  14; 6HR MAX TEMP:  21;

SIREN          MOCLDY    19  11  69 E10G17    29.93R WCI   7
CUMBERLAND     CLOUDY    16   9  73 NE13      29.89R WCI   2
RICE LAKE      CLOUDY    17  11  77 N15       29.91R WCI   2
CHETEK         CLOUDY    18  11  74 N9        29.90R WCI   7
LADYSMITH      MOCLDY    16  10  74 NE13      29.90R WCI   3
EAU CLAIRE     CLOUDY    24  16  71 NE13      29.86R WCI  12
6HR MIN TEMP:  24; 6HR MAX TEMP:  35;

MENOMONIE      CLOUDY    25  17  73 N14       29.86R WCI  13
NEW RICHMOND   CLOUDY    21  13  71 NE18      29.89R WCI   6
OSCEOLA        CLOUDY    21  13  72 NE14      29.93R WCI   8
$$

WIZ003>005-009-010-017-018-251300-
NORTH CENTRAL WISCONSIN

CITY           SKY/WX    TMP DP  RH WIND       PRES   REMARKS
MANITOWISH WTR FLURRIES  13   8  83 NE7       29.89R WCI   2
ARBOR VITAE    FLURRIES  17  11  79 NE7       29.88R WCI   7
WOODRUFF       FLURRIES  17  11  79 NE7       29.88R WCI   7
RHINELANDER    CLOUDY    14   7  73 NE13      29.87R WCI   0
6HR MIN TEMP:  13; 6HR MAX TEMP:  18;

EAGLE RIVER    FLURRIES  14   7  73 NE10      29.88R WCI   1
LAND O LAKES   LGT SNOW  14   9  83 NE7       29.90R WCI   3
PHILLIPS       MOCLDY    11   7  83 NE7       29.87R WCI   0
TOMAHAWK       CLOUDY    14   8  77 NE5       29.87R WCI   6
MEDFORD        CLOUDY    15   9  77 NE10      29.84R WCI   2
MERRILL        CLOUDY    16   9  75 NE8       29.86R WCI   5
$$

WIZ029-030-035-036-043>047-251300-
CENTRAL WISCONSIN

CITY           SKY/WX    TMP DP  RH WIND       PRES   REMARKS
WAUSAU         CLOUDY    17   9  70 NE12      29.85R WCI   4
6HR MIN TEMP:  17; 6HR MAX TEMP:  30;

MOSINEE        CLOUDY    18  12  79 NE12      29.85R WCI   5
MARSHFIELD     CLOUDY    22  13  68 E16       29.83R WCI   8
6HR MIN TEMP:  22; 6HR MAX TEMP:  32;

STEVENS POINT  CLOUDY    18  10  71 NE14      29.85R WCI   4
WAUPACA        CLOUDY    23  13  65 NE9G16    29.87R WCI  13
WAUTOMA        CLOUDY    21  14  73 NE13      29.85R WCI   9
WISC RAPIDS    CLOUDY    20  11  68 E15G21    29.86R WCI   6
6HR MIN TEMP:  20; 6HR MAX TEMP:  30;

CAMP DOUGLAS   CLOUDY    23  21  93 E10       29.82R WCI  12
$$

WIZ011>013-019>022-031-037>040-048>050-251300-
NORTHEAST WISCONSIN

CITY           SKY/WX    TMP DP  RH WIND       PRES   REMARKS
ANTIGO         CLOUDY    13   8  79 E12       29.85R WCI   0
SHAWANO        CLOUDY    22  13  68 NE10      29.90R WCI  11
OCONTO         CLOUDY    19  13  79 MISG      29.92R
STURGEON BAY   CLOUDY    16   7  67 NE15      29.94R WCI   1
6HR MIN TEMP:  16; 6HR MAX TEMP:  21;

GREEN BAY      CLOUDY    20  13  74 NE24G31   29.90R WCI   3
6HR MIN TEMP:  20; 6HR MAX TEMP:  23;

MANITOWOC      NOT AVBL
APPLETON       CLOUDY    19  10  68 NE18G26   29.86R WCI   4
CLINTONVILLE   CLOUDY    21  12  68 E9        29.88R WCI  11
OSHKOSH        CLOUDY    21  13  71 NE20G26   29.85R WCI   6
6HR MIN TEMP:  21; 6HR MAX TEMP:  28;

$$

WIZ032>034-041-042-053>061-251300-
SOUTHWEST WISCONSIN

CITY           SKY/WX    TMP DP  RH WIND       PRES   REMARKS
LA CROSSE      CLOUDY    30  23  75 E9G20     29.81R WCI  22
6HR MIN TEMP:  30; 6HR MAX TEMP:  37; 6HR PCP: TRACE;

SPARTA         CLOUDY    26  21  82 E9G21     29.82R WCI  16
VIROQUA        CLOUDY    26  25  99 E13       29.75R WCI  15
BOSCOBEL       FLURRIES  29  23  78 NE14G23   29.78R WCI  18
6HR MIN TEMP:  29; 6HR MAX TEMP:  35; 6HR PCP: TRACE;

PRAIRIE DU CHI LGT SNOW  33  29  85 NE10G17   29.73R WCI  25
PLATTEVILLE    CLOUDY    31  28  89 NE21G28   29.69R WCI  18
$$

WIZ056-057-062-063-064-067-068-251300-
SOUTH CENTRAL WISCONSIN

CITY           SKY/WX    TMP DP  RH WIND       PRES   REMARKS
REEDSBURG      DRIZZLE   23  17  79 NE15G22   29.80R WCI  10
BARABOO/DELLS  CLOUDY    22  17  81 NE14      29.80R WCI   9
LONE ROCK      NOT AVBL
MINERAL POINT  FLURRIES  30  27  86 NE20G29   29.71R WCI  18
MADISON        LGT SNOW  25  20  81 NE17      29.79R WCI  12
6HR MIN TEMP:  25; 6HR MAX TEMP:  33; 6HR PCP: TRACE;

MIDDLETON      CLOUDY    27  22  84 NE14G22   29.78R WCI  15
WATERTOWN      FLURRIES  26  22  86 NE14G21   29.77R WCI  14
MONROE         CLOUDY    28  27  93 NE24      29.70R WCI  14
JANESVILLE     FLURRIES  30  27  86 NE14G22   29.74R WCI  20
$$

WIZ051-052-058>065-066-070>072-251300-
SOUTHEAST WISCONSIN

CITY           SKY/WX    TMP DP  RH WIND       PRES   REMARKS
MILWAUKEE      LGT SNOW  28  22  78 NE21G32   29.79R WCI  15
6HR MIN TEMP:  28; 6HR MAX TEMP:  34; 6HR PCP: TRACE;

WAUKESHA       CLOUDY    27  21  80 NE17G29   29.78R WCI  14
MILWAUKEE/TIMM FLURRIES  28  21  74 NE20G25   29.79R WCI  15
RACINE         FLURRIES  29  22  75 NE23G32   29.79R WCI  15
6HR MIN TEMP:  29; 6HR MAX TEMP:  34; 6HR PCP: TRACE;

BURLINGTON     FLURRIES  28  24  88 NE14G23   29.76R WCI  16
KENOSHA        FLURRIES  29  25  85 NE21G28   29.77R WCI  16
6HR MIN TEMP:  29; 6HR MAX TEMP:  34; 6HR PCP: TRACE;

FOND DU LAC    CLOUDY    23  15  71 NE16      29.84S WCI  10
6HR MIN TEMP:  23; 6HR MAX TEMP:  29;

SHEBOYGAN      CLOUDY    26  19  74 NE25      29.84R WCI  11
6HR MIN TEMP:  24; 6HR MAX TEMP:  27;

WEST BEND      CLOUDY    27  19  74 NE12      29.80R WCI  16
JUNEAU         CLOUDY    23  18  80 NE15G21   29.80R WCI  10
$$

LSZ147-162-251300-
LAKE SUPERIOR

STATION/POSITION TIME  TEMP    WIND        PRES    WAVE
                       AIR SEA DIR/SP/G            HT/PER
                 (UTC) (F)     (DEG/KT/KT) (MB)    (FT/S)
DEVILS ISLAND    1100   20      40/ 18/ 24 1016.9R
PORT WING        1140   22      70/  9/ 13 1015.6R
SAXON HARBOR     1100   20      80/  5/  9 1014.9
$$

LMZ867-665-643>646-251300-
LAKE MICHIGAN

STATION/POSITION TIME  TEMP    WIND        PRES    WAVE
                       AIR SEA DIR/SP/G            HT/PER
                 (UTC) (F)     (DEG/KT/KT) (MB)    (FT/S)
NORTHPORT PIER   1105   16      30/ 15/ 21 1014.2R
SISTER BAY       1143   14      20/  9/ 18   N/A
KEWAUNEE LAKESHO 1100           20/ 14/ 18 1010.8R
SHEBOYGAN LAKESH 1100   27      40/ 25/ 28 1010.9R
PORT WASHINGTON  1127   29      40/ 23/ 27 1010.5R
MILWAUKEE LAKESH 1100   29      40/ 27/ 32   N/A
KENOSHA   LAKESH 1100   31      30/ 27/ 30 1007.1R
$$

TC  - TEMPERATURE IN CELSIUS
VSB - VISIBILITY IN STATUTE MILES
WCI - WIND CHILL INDEX
HX  - HEAT INDEX




USA.gov is the U.S. government's official web portal to all federal, state and local government web resources and services.